Wilmington, OH

10:48 AM EST on February 26, 2017 (GMT -0500)
Airborne

Weather History for KILN - October, 2012

Change the Weather History Date:

Thursday, October 4, 2012

  Actual Average (KFFO) Record (KFFO)
Temperature  
Mean Temperature 64 °F -  
Max Temperature 75 °F 67 °F 86 °F (1997)
Min Temperature 52 °F 44 °F 35 °F (1996)
Degree Days  
Heating Degree Days 2    
Growing Degree Days 14 (Base 50)    
Moisture  
Dew Point 54 °F    
Average Humidity 75    
Maximum Humidity 93    
Minimum Humidity 50    
Precipitation  
Precipitation 0.01 in - - ()
Sea Level Pressure  
Sea Level Pressure 30.18 in    
Wind  
Wind Speed 6 mph (SSW)    
Max Wind Speed 18 mph    
Max Gust Speed 24 mph    
Visibility 10 miles    
Events Rain    
Averages and records for this station are not official NWS values.
T = Trace of Precipitation, MM = Missing Value Source: NWS Daily Summary

Daily Weather History Graph

Daily Weather History Graph

Search for Another Location

Airport or City:

Trip Planner

Search our weather history database for the weather conditions in past years. The results will help you decide how hot, cold, wet, or windy it might be!

Date:

Astronomy

Oct. 04, 2012 Rise Set
Actual Time 7:34 AM EDT 7:12 PM EDT
Civil Twilight 7:07 AM EDT 7:38 PM EDT
Nautical Twilight 6:36 AM EDT 8:09 PM EDT
Astronomical Twilight 6:05 AM EDT 8:41 PM EDT
Moon 9:48 PM EDT (10/4) 11:49 AM EDT (10/4)
Length of Visible Light 12h 31m
Length of Day
11h 37m
Waning Gibbous, 82% of the Moon is Illuminated
Oct 4
Waning Gibbous
Oct 8
Last Quarter
Oct 15
New
Oct 21
First Quarter
Oct 29
Full

Hourly Weather History & Observations

Time (EDT) Temp. Dew Point Humidity Pressure Visibility Wind Dir Wind Speed Gust Speed Precip Events Conditions
12:54 AM 55.9 °F 52.0 °F 87% 30.16 in 10.0 mi South 3.5 mph - N/A   Clear
1:54 AM 55.9 °F 52.0 °F 87% 30.17 in 10.0 mi Calm Calm - N/A   Clear
2:54 AM 55.0 °F 51.1 °F 86% 30.17 in 10.0 mi South 3.5 mph - N/A   Clear
3:54 AM 53.1 °F 51.1 °F 93% 30.17 in 10.0 mi South 3.5 mph - N/A   Clear
4:54 AM 53.1 °F 51.1 °F 93% 30.17 in 10.0 mi South 3.5 mph - N/A   Clear
5:54 AM 53.1 °F 50.0 °F 89% 30.18 in 10.0 mi SSW 3.5 mph - N/A   Clear
6:54 AM 52.0 °F 50.0 °F 93% 30.20 in 9.0 mi South 5.8 mph - N/A   Clear
7:54 AM 53.1 °F 51.1 °F 93% 30.21 in 8.0 mi SSW 6.9 mph - N/A   Clear
8:54 AM 57.9 °F 54.0 °F 87% 30.21 in 10.0 mi SSW 5.8 mph - N/A   Clear
9:54 AM 59.0 °F 55.0 °F 87% 30.22 in 6.0 mi SSW 10.4 mph - 0.01 in Rain Light Rain
10:54 AM 62.1 °F 57.0 °F 84% 30.23 in 10.0 mi South 8.1 mph - 0.00 in   Mostly Cloudy
11:54 AM 69.1 °F 57.0 °F 65% 30.21 in 10.0 mi SW 17.3 mph 20.7 mph N/A   Partly Cloudy
12:54 PM 72.0 °F 57.0 °F 59% 30.21 in 10.0 mi WSW 15.0 mph - N/A   Partly Cloudy
1:54 PM 73.0 °F 55.9 °F 55% 30.19 in 10.0 mi SW 15.0 mph 21.9 mph N/A   Partly Cloudy
2:54 PM 73.9 °F 55.9 °F 53% 30.17 in 10.0 mi WSW 13.8 mph 24.2 mph N/A   Clear
3:54 PM 75.0 °F 55.9 °F 51% 30.15 in 10.0 mi SW 12.7 mph 21.9 mph N/A   Scattered Clouds
4:54 PM 73.9 °F 54.0 °F 50% 30.14 in 10.0 mi SW 18.4 mph - N/A   Partly Cloudy
5:54 PM 73.0 °F 54.0 °F 51% 30.15 in 10.0 mi SW 11.5 mph - N/A   Clear
6:54 PM 69.1 °F 54.0 °F 58% 30.16 in 10.0 mi SSW 9.2 mph - N/A   Clear
7:54 PM 64.0 °F 54.0 °F 70% 30.16 in 10.0 mi South 5.8 mph - N/A   Clear
8:54 PM 63.0 °F 54.0 °F 72% 30.16 in 10.0 mi SSW 5.8 mph - N/A   Clear
9:54 PM 61.0 °F 54.0 °F 78% 30.17 in 10.0 mi SSW 4.6 mph - N/A   Clear
10:54 PM 60.1 °F 54.0 °F 80% 30.16 in 10.0 mi SSW 5.8 mph - N/A   Clear
11:54 PM 59.0 °F 54.0 °F 83% 30.15 in 10.0 mi SSW 8.1 mph - N/A   Clear